"SCET";"TARGET";"ELECTRON_DENSITY";"ERROR_FLAG";"ELECTRON_DENSITY_ERROR";"FREQ_FCE";"MEASURED_VALUE";"MEASURED_ITEM";"FREQ_PLASMA";"FREQ_UPPER_HYBRID";"FREQ_R_EQUALS_ZERO";"FREQ_L_EQUALS_ZERO";"ORBIT_NUMBER";"SATURN_RADIUS";"SATURN_IAU_LONGITUDE";"SATURN_SLS4_S_LONGITUDE";"SATURN_SLS4_N_LONGITUDE";"SATURN_SLS5_S_LONGITUDE";"SATURN_SLS5_N_LONGITUDE";"SATURN_LOCAL_TIME";"SATURN_KRONOGRAPHIC_LATITUDE";"SATURN_MAGNETIC_LATITUDE";"SATURN_L";"SATURN_L_OFFSET";"SATURN_SOLAR_EQUATORIAL_X";"SATURN_SOLAR_EQUATORIAL_Y";"SATURN_SOLAR_EQUATORIAL_Z";"SATURN_ALTITUDE";"ENCELADUS_ENCOUNTER_NUMBER";"ENCELADUS_RADIUS";"ENCELADUS_COROTATIONAL_X";"ENCELADUS_COROTATIONAL_Y";"ENCELADUS_COROTATIONAL_Z";"ENCELADUS_TRUE_ANOMALY";"ENCELADUS_PERIAPSIS_TIME";"JUPITER_RADIUS";"JUPITER_SYSTEMIII_LONGITUDE";"JUPITER_MAGNETIC_LATITUDE";"JUPITER_MAGNETIC_LOCAL_TIME";"JUPITER_L";"IO_PHASE";"EARTH_RADIUS";"EARTH_MAGNETIC_LATITUDE";"EARTH_LOCAL_TIME";"EARTH_L"
"[UTC]";"[0=Saturn, 1=Enceladus, 2=Jupiter, 3=Earth]";"[cm-3]";"[0=automated, 1=manual]";"[normalized density error]";"[Hz]";"[Hz]";"[0=upper hybrid frequency, 1=plasma frequency cutoff]";"[Hz]";"[Hz]";"[Hz]";"[Hz}";"[0, A, B, C, 3, 4, ... , 292, 293]";"[Rs where 1Rs=60268km]";"[degrees]";"[degrees]";"[degrees]";"[degrees]";"[degrees]";"[hours]";"[degrees]";"[degrees where offset=2293km north]";"[Rs where 1Rs=60268km]";"[Rs where 1Rs=60268km and offset=2293km north]";"[Rs where 1Rs=60268km]";"[Rs where 1Rs=60268km]";"[Rs where 1Rs=60268km]";"[km where ellipsoid a,b=60268km and c=54364km]";"[E0, E1, E2, ... , E21, E22]";"[Renc where 1Renc=252.1km]";"[Renc where 1Renc=252.1km]";"[Renc where 1Renc=252.1km]";"[Renc where 1Renc=252.1km]";"[degrees]";"[UTC]";"[Rj where 1Rj=71492km]";"[degrees]";"[degrees using JRM09 model]";"[hours using JRM09 model]";"[Rj where 1Rj=71492km]";"[degrees]";"[Re where 1Re=6378.1366km]";"[degrees]";"[hours]";"[Re where 1Re=6378.1366km]"
2010-03-20T10:28:26.657Z;0;9.7140e+00;0;     0.141;   817.236;  27999.895; 0;  27987.965;  27999.895;  28399.566;  27582.330;128;   7.965; 295.075;;; 322.538;  20.945;  23.578;   0.238;  -0.036;   7.965;   7.956;  -7.916;   0.878;   0.033;;;;;;;;;;;;;;;;;;
2010-03-20T10:28:42.657Z;0;9.6590e+00;0;     0.145;   817.236;  27920.291; 0;  27908.328;  27920.291;  28319.938;  27502.701;128;   7.962; 295.211;;; 322.674;  21.079;  23.579;   0.238;  -0.036;   7.962;   7.954;  -7.914;   0.876;   0.033;;;;;;;;;;;;;;;;;;
2010-03-20T10:28:58.657Z;0;1.0000e+01;0;     0.162;   817.236;  28416.078; 0;  28404.324;  28416.078;  28815.881;  27998.645;128;   7.960; 295.348;;; 322.809;  21.213;  23.580;   0.238;  -0.036;   7.960;   7.952;  -7.912;   0.874;   0.033;;;;;;;;;;;;;;;;;;
2010-03-20T10:29:46.656Z;0;8.9300e+00;0;     0.162;   827.904;  26847.506; 0;  26834.738;  26847.506;  27251.883;  26423.979;128;   7.953; 295.756;;; 323.215;  21.616;  23.583;   0.237;  -0.037;   7.953;   7.945;  -7.906;   0.867;   0.033;;;;;;;;;;;;;;;;;;
2010-03-20T10:30:18.656Z;0;8.6810e+00;0;     0.161;   816.312;  26471.309; 0;  26458.719;  26471.309;  26870.023;  26053.711;128;   7.948; 296.028;;; 323.485;  21.885;  23.584;   0.237;  -0.037;   7.949;   7.940;  -7.901;   0.863;   0.033;;;;;;;;;;;;;;;;;;
2010-03-20T10:30:50.656Z;0;8.2390e+00;0;     0.170;   816.312;  25789.527; 0;  25776.605;  25789.527;  26187.992;  25371.680;128;   7.944; 296.300;;; 323.756;  22.156;  23.586;   0.237;  -0.037;   7.944;   7.936;  -7.897;   0.859;   0.033;;;;;;;;;;;;;;;;;;
2010-03-20T10:31:06.656Z;0;8.3700e+00;0;     0.175;   804.748;  25992.004; 0;  25979.543;  25992.004;  26385.033;  25580.285;128;   7.942; 296.436;;; 323.891;  22.291;  23.587;   0.237;  -0.038;   7.942;   7.933;  -7.895;   0.856;   0.033;;;;;;;;;;;;;;;;;;
2010-03-20T10:31:22.656Z;0;8.0070e+00;0;     0.187;   804.748;  25423.031; 0;  25410.291;  25423.031;  25815.852;  25011.104;128;   7.939; 296.572;;; 324.026;  22.426;  23.588;   0.237;  -0.038;   7.939;   7.931;  -7.893;   0.854;   0.033;;;;;;;;;;;;;;;;;;
2010-03-20T10:33:46.655Z;0;7.9950e+00;0;     0.191;   826.672;  25404.662; 0;  25391.209;  25404.662;  25807.908;  24981.236;128;   7.918; 297.796;;; 325.242;  23.642;  23.597;   0.236;  -0.039;   7.919;   7.910;  -7.874;   0.834;   0.033;;;;;;;;;;;;;;;;;;
2010-03-20T10:34:18.654Z;0;8.7870e+00;0;     0.174;   852.096;  26632.670; 0;  26619.035;  26632.670;  27048.492;  26196.396;128;   7.914; 298.068;;; 325.513;  23.913;  23.599;   0.236;  -0.039;   7.914;   7.906;  -7.870;   0.830;   0.033;;;;;;;;;;;;;;;;;;
2010-03-20T10:34:50.654Z;0;9.0750e+00;0;     0.157;   852.096;  27064.859; 0;  27051.443;  27064.859;  27480.846;  26628.750;128;   7.909; 298.340;;; 325.783;  24.183;  23.600;   0.236;  -0.040;   7.909;   7.901;  -7.866;   0.826;   0.033;;;;;;;;;;;;;;;;;;
2010-03-20T10:35:06.654Z;0;8.2650e+00;0;     0.155;   881.356;  25832.098; 0;  25817.059;  25832.098;  26261.496;  25380.141;128;   7.907; 298.476;;; 325.918;  24.318;  23.601;   0.236;  -0.040;   7.907;   7.899;  -7.864;   0.823;   0.033;;;;;;;;;;;;;;;;;;
2010-03-20T10:35:22.654Z;0;9.0200e+00;0;     0.183;   881.356;  26984.418; 0;  26970.021;  26984.418;  27414.299;  26532.943;128;   7.905; 298.612;;; 326.053;  24.453;  23.602;   0.236;  -0.040;   7.905;   7.896;  -7.862;   0.821;   0.033;;;;;;;;;;;;;;;;;;
2010-03-20T10:35:38.654Z;0;8.4620e+00;0;     0.183;   881.356;  26137.600; 0;  26122.736;  26137.600;  26567.131;  25685.775;128;   7.902; 298.747;;; 326.188;  24.588;  23.603;   0.236;  -0.040;   7.902;   7.894;  -7.860;   0.819;   0.032;;;;;;;;;;;;;;;;;;
2010-03-20T10:35:54.654Z;0;8.9890e+00;0;     0.158;   881.356;  26938.006; 0;  26923.584;  26938.006;  27367.867;  26486.512;128;   7.900; 298.883;;; 326.323;  24.723;  23.604;   0.236;  -0.040;   7.900;   7.892;  -7.858;   0.817;   0.032;;;;;;;;;;;;;;;;;;
2010-03-20T10:36:10.654Z;0;1.1530e+01;0;     0.140;   884.660;  30507.580; 0;  30494.750;  30507.580;  30940.289;  30055.629;128;   7.898; 299.019;;; 326.458;  24.858;  23.605;   0.235;  -0.041;   7.898;   7.890;  -7.856;   0.815;   0.032;;;;;;;;;;;;;;;;;;
2010-03-20T10:36:26.654Z;0;1.0980e+01;0;     0.128;   884.660;  29773.592; 0;  29760.445;  29773.592;  30206.062;  29321.402;128;   7.895; 299.155;;; 326.593;  24.993;  23.606;   0.235;  -0.041;   7.896;   7.887;  -7.853;   0.812;   0.032;;;;;;;;;;;;;;;;;;
2010-03-20T10:36:42.653Z;0;1.0820e+01;0;     0.128;   884.660;  29546.451; 0;  29533.205;  29546.451;  29978.846;  29094.188;128;   7.893; 299.291;;; 326.728;  25.128;  23.607;   0.235;  -0.041;   7.893;   7.885;  -7.851;   0.810;   0.032;;;;;;;;;;;;;;;;;;
2010-03-20T10:36:58.653Z;0;1.0850e+01;0;     0.121;   884.660;  29593.389; 0;  29580.162;  29593.389;  30025.799;  29141.141;128;   7.891; 299.427;;; 326.863;  25.263;  23.608;   0.235;  -0.041;   7.891;   7.883;  -7.849;   0.808;   0.032;;;;;;;;;;;;;;;;;;
2010-03-20T10:37:14.653Z;0;1.1040e+01;0;     0.134;   855.204;  29845.969; 0;  29833.713;  29845.969;  30264.381;  29409.176;128;   7.889; 299.563;;; 326.998;  25.398;  23.609;   0.235;  -0.041;   7.889;   7.880;  -7.847;   0.806;   0.032;;;;;;;;;;;;;;;;;;
2010-03-20T10:37:30.653Z;0;1.1750e+01;0;     0.121;   855.204;  30797.893; 0;  30786.016;  30797.893;  31216.588;  30361.385;128;   7.886; 299.698;;; 327.133;  25.533;  23.610;   0.235;  -0.041;   7.886;   7.878;  -7.845;   0.804;   0.032;;;;;;;;;;;;;;;;;;
2010-03-20T10:37:46.653Z;0;1.0910e+01;0;     0.137;   855.204;  29675.021; 0;  29662.695;  29675.021;  30093.379;  29238.176;128;   7.884; 299.834;;; 327.268;  25.668;  23.611;   0.235;  -0.041;   7.884;   7.876;  -7.843;   0.802;   0.032;;;;;;;;;;;;;;;;;;
2010-03-20T10:38:02.653Z;0;1.1000e+01;0;     0.143;   831.796;  29788.662; 0;  29777.047;  29788.662;  30195.850;  29364.053;128;   7.882; 299.970;;; 327.403;  25.803;  23.612;   0.235;  -0.042;   7.882;   7.873;  -7.841;   0.799;   0.032;;;;;;;;;;;;;;;;;;
2010-03-20T10:38:18.653Z;0;1.1540e+01;0;     0.149;   831.796;  30517.980; 0;  30506.643;  30517.980;  30925.375;  30093.580;128;   7.879; 300.106;;; 327.538;  25.938;  23.613;   0.235;  -0.042;   7.879;   7.871;  -7.839;   0.797;   0.032;;;;;;;;;;;;;;;;;;
2010-03-20T10:38:34.653Z;0;1.0590e+01;0;     0.161;   831.796;  29238.910; 0;  29227.076;  29238.910;  29645.934;  28814.137;128;   7.877; 300.242;;; 327.673;  26.073;  23.614;   0.235;  -0.042;   7.877;   7.869;  -7.837;   0.795;   0.032;;;;;;;;;;;;;;;;;;
2010-03-20T10:38:50.653Z;0;1.0980e+01;0;     0.142;   831.796;  29766.467; 0;  29754.842;  29766.467;  30173.646;  29341.852;128;   7.875; 300.378;;; 327.808;  26.208;  23.615;   0.235;  -0.042;   7.875;   7.867;  -7.835;   0.793;   0.032;;;;;;;;;;;;;;;;;;
2010-03-20T10:39:06.652Z;0;1.0100e+01;0;     0.145;   839.860;  28548.305; 0;  28535.947;  28548.305;  28958.969;  28119.107;128;   7.872; 300.513;;; 327.943;  26.343;  23.616;   0.235;  -0.042;   7.873;   7.864;  -7.833;   0.791;   0.032;;;;;;;;;;;;;;;;;;
2010-03-20T10:39:22.652Z;0;1.0850e+01;0;     0.161;   839.860;  29597.436; 0;  29585.518;  29597.436;  30008.428;  29168.566;128;   7.870; 300.649;;; 328.078;  26.478;  23.617;   0.235;  -0.042;   7.870;   7.862;  -7.830;   0.788;   0.032;;;;;;;;;;;;;;;;;;
2010-03-20T10:39:38.652Z;0;1.0910e+01;0;     0.145;   839.860;  29677.297; 0;  29665.410;  29677.297;  30088.312;  29248.453;128;   7.868; 300.785;;; 328.213;  26.613;  23.618;   0.234;  -0.043;   7.868;   7.860;  -7.828;   0.786;   0.032;;;;;;;;;;;;;;;;;;
2010-03-20T10:40:10.652Z;0;1.0040e+01;0;     0.155;   854.672;  28459.902; 0;  28447.066;  28459.902;  28877.611;  28022.939;128;   7.863; 301.056;;; 328.484;  26.883;  23.620;   0.234;  -0.043;   7.863;   7.855;  -7.824;   0.782;   0.032;;;;;;;;;;;;;;;;;;
2010-03-20T10:40:42.652Z;0;1.0570e+01;0;     0.155;   854.672;  29214.445; 0;  29201.941;  29214.445;  29632.404;  28777.732;128;   7.859; 301.328;;; 328.757;  27.153;  23.621;   0.234;  -0.043;   7.859;   7.850;  -7.820;   0.777;   0.032;;;;;;;;;;;;;;;;;;
2010-03-20T10:42:02.651Z;0;1.1820e+01;0;     0.161;   889.448;  30880.475; 0;  30867.662;  30880.475;  31315.590;  30426.143;128;   7.847; 302.006;;; 329.440;  27.827;  23.626;   0.234;  -0.044;   7.847;   7.839;  -7.809;   0.766;   0.032;;;;;;;;;;;;;;;;;;
2010-03-20T10:42:18.651Z;0;1.0550e+01;0;     0.152;   889.448;  29175.602; 0;  29162.041;  29175.602;  29610.156;  28720.707;128;   7.845; 302.142;;; 329.576;  27.962;  23.627;   0.234;  -0.044;   7.845;   7.837;  -7.807;   0.764;   0.032;;;;;;;;;;;;;;;;;;
2010-03-20T10:42:34.651Z;0;9.9500e+00;0;     0.137;   889.448;  28340.781; 0;  28326.820;  28340.781;  28775.035;  27885.588;128;   7.842; 302.278;;; 329.713;  28.097;  23.628;   0.234;  -0.044;   7.842;   7.834;  -7.805;   0.762;   0.032;;;;;;;;;;;;;;;;;;
2010-03-20T10:42:50.651Z;0;1.2130e+01;0;     0.101;   889.448;  31285.787; 0;  31273.141;  31285.787;  31721.027;  30831.580;128;   7.840; 302.413;;; 329.850;  28.232;  23.629;   0.233;  -0.045;   7.840;   7.832;  -7.803;   0.760;   0.032;;;;;;;;;;;;;;;;;;
2010-03-20T10:43:06.651Z;0;1.2650e+01;0;     0.114;   897.092;  31957.283; 0;  31944.689;  31957.283;  32396.385;  31499.293;128;   7.838; 302.549;;; 329.987;  28.367;  23.630;   0.233;  -0.045;   7.838;   7.830;  -7.801;   0.758;   0.032;;;;;;;;;;;;;;;;;;
2010-03-20T10:43:22.651Z;0;1.1710e+01;0;     0.065;   897.092;  30746.871; 0;  30733.781;  30746.871;  31185.600;  30288.508;128;   7.835; 302.685;;; 330.124;  28.502;  23.631;   0.233;  -0.045;   7.836;   7.827;  -7.799;   0.755;   0.032;;;;;;;;;;;;;;;;;;
2010-03-20T10:43:38.650Z;0;1.2000e+01;0;     0.115;   897.092;  31116.934; 0;  31104.000;  31116.934;  31555.779;  30658.688;128;   7.833; 302.820;;; 330.261;  28.636;  23.632;   0.233;  -0.045;   7.833;   7.825;  -7.797;   0.753;   0.032;;;;;;;;;;;;;;;;;;
2010-03-20T10:43:54.650Z;0;1.1960e+01;0;     0.113;   897.092;  31069.564; 0;  31056.611;  31069.564;  31508.396;  30611.303;128;   7.831; 302.956;;; 330.398;  28.771;  23.633;   0.233;  -0.045;   7.831;   7.823;  -7.795;   0.751;   0.032;;;;;;;;;;;;;;;;;;
2010-03-20T10:44:10.650Z;0;1.1900e+01;0;     0.101;   908.488;  30991.188; 0;  30977.869;  30991.188;  31435.443;  30526.955;128;   7.828; 303.092;;; 330.536;  28.906;  23.634;   0.233;  -0.045;   7.829;   7.820;  -7.793;   0.749;   0.032;;;;;;;;;;;;;;;;;;
2010-03-20T10:44:26.650Z;0;1.1700e+01;0;     0.124;   908.488;  30729.758; 0;  30716.326;  30729.758;  31173.928;  30265.439;128;   7.826; 303.227;;; 330.673;  29.041;  23.635;   0.233;  -0.045;   7.826;   7.818;  -7.790;   0.747;   0.032;;;;;;;;;;;;;;;;;;
2010-03-20T10:44:42.650Z;0;1.0920e+01;0;     0.136;   908.488;  29686.732; 0;  29672.828;  29686.732;  30130.549;  29222.061;128;   7.824; 303.363;;; 330.810;  29.175;  23.636;   0.233;  -0.046;   7.824;   7.816;  -7.788;   0.744;   0.032;;;;;;;;;;;;;;;;;;
2010-03-20T10:45:14.650Z;0;1.1820e+01;0;     0.160;   910.084;  30891.375; 0;  30877.967;  30891.375;  31336.361;  30426.277;128;   7.819; 303.634;;; 331.085;  29.445;  23.638;   0.233;  -0.046;   7.819;   7.811;  -7.784;   0.740;   0.032;;;;;;;;;;;;;;;;;;
2010-03-20T10:45:30.650Z;0;1.1950e+01;0;     0.123;   910.084;  31051.279; 0;  31037.939;  31051.279;  31496.316;  30586.232;128;   7.817; 303.770;;; 331.223;  29.580;  23.639;   0.233;  -0.046;   7.817;   7.809;  -7.782;   0.738;   0.032;;;;;;;;;;;;;;;;;;
2010-03-20T10:45:46.650Z;0;1.0890e+01;0;     0.157;   910.084;  29653.055; 0;  29639.086;  29653.055;  30097.621;  29187.537;128;   7.815; 303.905;;; 331.360;  29.715;  23.640;   0.233;  -0.046;   7.815;   7.807;  -7.780;   0.736;   0.032;;;;;;;;;;;;;;;;;;
2010-03-20T10:46:02.649Z;0;1.0170e+01;0;     0.214;   915.432;  28645.582; 0;  28630.951;  28645.582;  29092.326;  28176.893;128;   7.812; 304.041;;; 331.498;  29.849;  23.641;   0.233;  -0.046;   7.812;   7.804;  -7.778;   0.733;   0.032;;;;;;;;;;;;;;;;;;
2010-03-20T10:46:50.649Z;0;1.1920e+01;0;     0.129;   915.432;  31011.602; 0;  30998.088;  31011.602;  31459.182;  30543.750;128;   7.805; 304.447;;; 331.911;  30.253;  23.644;   0.232;  -0.047;   7.805;   7.797;  -7.771;   0.727;   0.032;;;;;;;;;;;;;;;;;;
2010-03-20T10:47:06.649Z;0;1.1920e+01;0;     0.141;   930.916;  31014.025; 0;  31000.051;  31014.025;  31469.004;  30538.088;128;   7.803; 304.583;;; 332.049;  30.388;  23.645;   0.232;  -0.047;   7.803;   7.795;  -7.769;   0.725;   0.032;;;;;;;;;;;;;;;;;;
2010-03-20T10:47:22.649Z;0;9.8860e+00;0;     0.146;   930.916;  28250.957; 0;  28235.615;  28250.957;  28704.910;  27773.994;128;   7.801; 304.718;;; 332.187;  30.523;  23.646;   0.232;  -0.047;   7.801;   7.793;  -7.767;   0.722;   0.032;;;;;;;;;;;;;;;;;;
2010-03-20T10:47:54.649Z;0;8.8560e+00;0;     0.167;   930.916;  26739.344; 0;  26723.135;  26739.344;  27192.645;  26261.729;128;   7.796; 304.989;;; 332.463;  30.792;  23.648;   0.232;  -0.048;   7.796;   7.788;  -7.763;   0.718;   0.032;;;;;;;;;;;;;;;;;;
2010-03-20T10:48:10.649Z;0;9.7740e+00;0;     0.156;   927.500;  28089.686; 0;  28074.369;  28089.686;  28541.949;  27614.449;128;   7.794; 305.125;;; 332.601;  30.927;  23.649;   0.232;  -0.048;   7.794;   7.786;  -7.761;   0.716;   0.032;;;;;;;;;;;;;;;;;;
2010-03-20T10:48:26.648Z;0;9.8350e+00;0;     0.174;   927.500;  28176.846; 0;  28161.576;  28176.846;  28629.145;  27701.645;128;   7.791; 305.260;;; 332.739;  31.062;  23.650;   0.232;  -0.048;   7.792;   7.783;  -7.759;   0.714;   0.032;;;;;;;;;;;;;;;;;;
2010-03-20T10:48:42.648Z;0;1.0030e+01;0;     0.160;   927.500;  28462.012; 0;  28446.895;  28462.012;  28914.426;  27986.926;128;   7.789; 305.396;;; 332.878;  31.196;  23.651;   0.232;  -0.048;   7.789;   7.781;  -7.757;   0.711;   0.031;;;;;;;;;;;;;;;;;;
2010-03-20T10:48:58.648Z;0;1.0680e+01;0;     0.163;   927.500;  29364.123; 0;  29349.471;  29364.123;  29816.885;  28889.385;128;   7.787; 305.531;;; 333.016;  31.331;  23.652;   0.232;  -0.048;   7.787;   7.779;  -7.754;   0.709;   0.031;;;;;;;;;;;;;;;;;;
2010-03-20T10:49:14.648Z;0;1.2050e+01;0;     0.142;   908.460;  31182.676; 0;  31169.439;  31182.676;  31626.979;  30718.520;128;   7.785; 305.667;;; 333.154;  31.465;  23.652;   0.232;  -0.048;   7.785;   7.776;  -7.752;   0.707;   0.031;;;;;;;;;;;;;;;;;;
2010-03-20T10:49:30.648Z;0;1.1720e+01;0;     0.067;   908.460;  30760.314; 0;  30746.896;  30760.314;  31204.482;  30296.021;128;   7.782; 305.802;;; 333.293;  31.600;  23.653;   0.231;  -0.049;   7.782;   7.774;  -7.750;   0.705;   0.031;;;;;;;;;;;;;;;;;;
2010-03-20T10:49:46.648Z;0;1.1850e+01;0;     0.147;   908.460;  30923.576; 0;  30910.229;  30923.576;  31367.797;  30459.336;128;   7.780; 305.938;;; 333.431;  31.735;  23.654;   0.231;  -0.049;   7.780;   7.772;  -7.748;   0.703;   0.031;;;;;;;;;;;;;;;;;;
2010-03-20T10:50:18.648Z;0;1.3020e+01;0;     0.120;   931.812;  32415.502; 0;  32402.105;  32415.502;  32871.363;  31939.549;128;   7.775; 306.209;;; 333.705;  32.004;  23.656;   0.231;  -0.049;   7.775;   7.767;  -7.744;   0.698;   0.031;;;;;;;;;;;;;;;;;;
2010-03-20T10:50:34.648Z;0;1.3380e+01;0;     0.136;   931.812;  32857.492; 0;  32844.277;  32857.492;  33313.488;  32381.676;128;   7.773; 306.344;;; 333.841;  32.139;  23.657;   0.231;  -0.049;   7.773;   7.765;  -7.742;   0.696;   0.031;;;;;;;;;;;;;;;;;;
2010-03-20T10:50:50.647Z;0;1.4050e+01;0;     0.124;   931.812;  33667.203; 0;  33654.305;  33667.203;  34123.438;  33191.625;128;   7.771; 306.479;;; 333.977;  32.273;  23.658;   0.231;  -0.049;   7.771;   7.763;  -7.740;   0.694;   0.031;;;;;;;;;;;;;;;;;;
2010-03-20T10:51:06.647Z;0;1.1830e+01;0;     0.131;   935.088;  30900.719; 0;  30886.566;  30900.719;  31357.650;  30422.562;128;   7.768; 306.615;;; 334.113;  32.408;  23.659;   0.231;  -0.050;   7.768;   7.760;  -7.737;   0.692;   0.031;;;;;;;;;;;;;;;;;;
2010-03-20T10:51:54.647Z;0;1.2160e+01;0;     0.128;   935.088;  31326.496; 0;  31312.537;  31326.496;  31783.572;  30848.482;128;   7.761; 307.021;;; 334.519;  32.811;  23.662;   0.231;  -0.050;   7.761;   7.753;  -7.731;   0.685;   0.031;;;;;;;;;;;;;;;;;;
2010-03-20T10:52:10.647Z;0;1.2730e+01;0;     0.140;   928.452;  32058.832; 0;  32045.385;  32058.832;  32512.973;  31584.521;128;   7.759; 307.156;;; 334.654;  32.946;  23.663;   0.231;  -0.050;   7.759;   7.751;  -7.729;   0.683;   0.031;;;;;;;;;;;;;;;;;;
2010-03-20T10:52:26.647Z;0;1.1610e+01;0;     0.159;   928.452;  30606.996; 0;  30592.910;  30606.996;  31060.658;  30132.207;128;   7.757; 307.292;;; 334.790;  33.080;  23.664;   0.231;  -0.050;   7.757;   7.749;  -7.727;   0.681;   0.031;;;;;;;;;;;;;;;;;;
2010-03-20T10:52:42.647Z;0;1.2910e+01;0;     0.078;   928.452;  32282.875; 0;  32269.521;  32282.875;  32737.086;  31808.635;128;   7.754; 307.427;;; 334.925;  33.215;  23.665;   0.230;  -0.051;   7.755;   7.746;  -7.725;   0.678;   0.031;;;;;;;;;;;;;;;;;;
2010-03-20T10:53:14.646Z;0;1.3790e+01;0;     0.096;   920.920;  33356.953; 0;  33344.238;  33356.953;  33807.879;  32886.957;128;   7.750; 307.698;;; 335.195;  33.484;  23.667;   0.230;  -0.051;   7.750;   7.742;  -7.720;   0.674;   0.031;;;;;;;;;;;;;;;;;;
2010-03-20T10:53:30.646Z;0;1.2770e+01;0;     0.133;   920.920;  32103.520; 0;  32090.309;  32103.520;  32554.072;  31633.152;128;   7.747; 307.833;;; 335.330;  33.618;  23.668;   0.230;  -0.051;   7.748;   7.739;  -7.718;   0.672;   0.031;;;;;;;;;;;;;;;;;;
2010-03-20T10:53:46.646Z;0;1.0990e+01;0;     0.131;   920.920;  29780.348; 0;  29766.105;  29780.348;  30230.127;  29309.207;128;   7.745; 307.968;;; 335.465;  33.753;  23.669;   0.230;  -0.051;   7.745;   7.737;  -7.716;   0.670;   0.031;;;;;;;;;;;;;;;;;;
2010-03-20T10:54:02.646Z;0;1.1730e+01;0;     0.148;   951.244;  30772.611; 0;  30757.906;  30772.611;  31237.205;  30285.961;128;   7.743; 308.104;;; 335.599;  33.887;  23.670;   0.230;  -0.051;   7.743;   7.735;  -7.714;   0.667;   0.031;;;;;;;;;;;;;;;;;;
2010-03-20T10:55:06.646Z;0;9.0090e+00;0;     0.188;   929.852;  26969.846; 0;  26953.811;  26969.846;  27422.746;  26492.895;128;   7.734; 308.645;;; 336.138;  34.425;  23.674;   0.230;  -0.052;   7.734;   7.725;  -7.705;   0.659;   0.031;;;;;;;;;;;;;;;;;;
2010-03-20T10:55:54.645Z;0;9.9230e+00;0;     0.169;   929.852;  28303.430; 0;  28288.150;  28303.430;  28756.898;  27827.045;128;   7.727; 309.051;;; 336.541;  34.828;  23.677;   0.229;  -0.053;   7.727;   7.719;  -7.699;   0.652;   0.031;;;;;;;;;;;;;;;;;;
2010-03-20T10:56:42.645Z;0;8.7580e+00;0;     0.187;   996.268;  26593.756; 0;  26575.088;  26593.756;  27077.891;  26081.623;128;   7.720; 309.456;;; 336.943;  35.232;  23.680;   0.229;  -0.053;   7.720;   7.712;  -7.692;   0.645;   0.031;;;;;;;;;;;;;;;;;;
2010-03-20T10:57:46.644Z;0;9.0580e+00;0;     0.215;   994.896;  27044.678; 0;  27026.371;  27044.678;  27528.398;  26533.502;128;   7.710; 309.997;;; 337.478;  35.769;  23.684;   0.229;  -0.054;   7.710;   7.702;  -7.684;   0.637;   0.031;;;;;;;;;;;;;;;;;;
2010-03-20T10:58:02.644Z;0;1.0000e+01;0;     0.160;   997.752;  28420.672; 0;  28403.152;  28420.672;  28906.410;  27908.658;128;   7.708; 310.132;;; 337.611;  35.903;  23.685;   0.229;  -0.054;   7.708;   7.700;  -7.682;   0.634;   0.031;;;;;;;;;;;;;;;;;;
2010-03-20T10:58:18.644Z;0;1.0860e+01;0;     0.144;   997.752;  29610.736; 0;  29593.922;  29610.736;  30097.002;  29099.250;128;   7.706; 310.267;;; 337.745;  36.038;  23.686;   0.229;  -0.054;   7.706;   7.698;  -7.680;   0.632;   0.031;;;;;;;;;;;;;;;;;;
2010-03-20T10:58:34.644Z;0;9.8110e+00;0;     0.161;   997.752;  28145.463; 0;  28127.771;  28145.463;  28631.072;  27633.320;128;   7.703; 310.402;;; 337.878;  36.172;  23.687;   0.229;  -0.054;   7.703;   7.695;  -7.677;   0.630;   0.031;;;;;;;;;;;;;;;;;;
2010-03-20T10:58:50.644Z;0;9.9340e+00;0;     0.158;   997.752;  28320.826; 0;  28303.246;  28320.826;  28806.518;  27808.766;128;   7.701; 310.538;;; 338.012;  36.306;  23.688;   0.229;  -0.054;   7.701;   7.693;  -7.675;   0.628;   0.031;;;;;;;;;;;;;;;;;;
2010-03-20T10:59:06.644Z;0;1.0620e+01;0;     0.163;   991.200;  29286.061; 0;  29269.281;  29286.061;  29769.078;  28777.877;128;   7.699; 310.673;;; 338.145;  36.441;  23.689;   0.228;  -0.055;   7.699;   7.691;  -7.673;   0.626;   0.031;;;;;;;;;;;;;;;;;;
2010-03-20T10:59:22.644Z;0;1.2740e+01;0;     0.145;   991.200;  32073.375; 0;  32058.055;  32073.375;  32557.486;  31566.285;128;   7.696; 310.808;;; 338.278;  36.575;  23.690;   0.228;  -0.055;   7.696;   7.688;  -7.671;   0.623;   0.031;;;;;;;;;;;;;;;;;;
2010-03-20T10:59:38.644Z;0;1.3000e+01;0;     0.136;   991.200;  32388.096; 0;  32372.926;  32388.096;  32872.316;  31881.119;128;   7.694; 310.943;;; 338.411;  36.709;  23.691;   0.228;  -0.055;   7.694;   7.686;  -7.669;   0.621;   0.031;;;;;;;;;;;;;;;;;;
2010-03-20T11:00:10.643Z;0;1.4570e+01;0;     0.127;  1009.456;  34292.301; 0;  34277.441;  34292.301;  34785.883;  33776.430;128;   7.689; 311.213;;; 338.678;  36.978;  23.693;   0.228;  -0.055;   7.689;   7.681;  -7.665;   0.617;   0.031;;;;;;;;;;;;;;;;;;
2010-03-20T11:00:26.643Z;0;1.3410e+01;0;     0.132;  1009.456;  32898.184; 0;  32882.691;  32898.184;  33391.293;  32381.838;128;   7.687; 311.348;;; 338.812;  37.112;  23.694;   0.228;  -0.055;   7.687;   7.679;  -7.662;   0.615;   0.031;;;;;;;;;;;;;;;;;;
2010-03-20T11:00:58.643Z;0;1.2000e+01;0;     0.137;  1009.456;  31121.902; 0;  31105.527;  31121.902;  31614.350;  30604.895;128;   7.682; 311.618;;; 339.081;  37.381;  23.696;   0.228;  -0.056;   7.683;   7.674;  -7.658;   0.610;   0.031;;;;;;;;;;;;;;;;;;
2010-03-20T11:01:14.643Z;0;1.4000e+01;0;     0.135;   997.388;  33611.180; 0;  33596.379;  33611.180;  34098.773;  33101.387;128;   7.680; 311.753;;; 339.215;  37.515;  23.697;   0.228;  -0.056;   7.680;   7.672;  -7.656;   0.608;   0.031;;;;;;;;;;;;;;;;;;
2010-03-20T11:01:30.643Z;0;1.3360e+01;0;     0.139;   997.388;  32841.602; 0;  32826.453;  32841.602;  33328.934;  32331.547;128;   7.678; 311.888;;; 339.349;  37.649;  23.698;   0.228;  -0.056;   7.678;   7.670;  -7.654;   0.606;   0.031;;;;;;;;;;;;;;;;;;